Regional Weather Roundup
Issued by NWS

Home | Current Version | Previous Version | Graphics & Text | Print | Product List | Glossary On
Versions: 1 2 3 4 5 6 7 8 9 10 11 12 13 14 15 16 17 18 19 20 21 22 23 24 25 26 27 28 29 30 31 32 33 34 35 36 37 38 39 40 41 42 43 44 45 46 47 48 49 50
000
ASUS43 KFSD 010710
RWRSD

WEATHER ROUNDUP FOR SOUTH DAKOTA
NATIONAL WEATHER SERVICE SIOUX FALLS SD
200 AM CDT FRI AUG 01 2014

NOTE: "FAIR" INDICATES FEW OR NO CLOUDS BELOW 12,000 FEET WITH NO
SIGNIFICANT WEATHER AND/OR OBSTRUCTIONS TO VISIBILITY.


SDZ001>005-009-010-012>017-010800-
NORTHWEST AND NORTH CENTRAL SOUTH DAKOTA

CITY           SKY/WX    TMP DP  RH WIND       PRES   REMARKS
BUFFALO          N/A     62  47  57 SW6       30.01F
FAITH            N/A     62  55  77 S14       30.07F
MOBRIDGE       PTCLDY    66  58  75 SE8       30.03S
$$

SDZ012>016-024>037-041>051-057-063-072>074-010800-
SOUTHWEST AND SOUTH CENTRAL SOUTH DAKOTA

CITY           SKY/WX    TMP DP  RH WIND       PRES   REMARKS
RAPID CTY ARPT CLEAR     65  50  58 W6        30.11F
PIERRE         CLEAR     66  56  70 SE8       30.04F
CUSTER         CLEAR     51  46  83 NW5       30.27F
ELLSWORTH AFB  CLEAR     66  50  55 W8        30.11F
PHILIP         CLEAR     63  51  65 NW5       30.06F
PINE RIDGE     PTCLDY    55  51  86 CALM      30.14S
WINNER         FAIR      66  60  81 S8        30.08F
$$

SDZ004>011-016>023-039-040-010800-
NORTHEAST SOUTH DAKOTA

CITY           SKY/WX    TMP DP  RH WIND       PRES   REMARKS
ABERDEEN       CLEAR     56  54  93 CALM      30.05S
WATERTOWN      CLEAR     60  55  83 CALM      30.07F
SISSETON         N/A     59  58  96 CALM      30.03F
$$

SDZ017-020-022-023-036>040-048>070-010800-
SOUTHEAST SOUTH DAKOTA

CITY           SKY/WX    TMP DP  RH WIND       PRES   REMARKS
SIOUX FALLS    CLEAR     59  57  93 CALM      30.07F
HURON          CLEAR     61  57  87 SE5       30.05F
CHAMBERLAIN    CLEAR     61  57  85 CALM      30.07S
MITCHELL       CLEAR     65  61  87 SW6       30.07S
YANKTON        CLEAR     61  57  88 CALM      30.07S
$$

ABBREVIATIONS USED IN REMARKS
   TC - TEMPERATURE IN CELSIUS
  WCI - WIND CHILL INDEX
   HX - HEAT INDEX
  VSB - VISIBILITY




USA.gov is the U.S. government's official web portal to all federal, state and local government web resources and services.